STARLINK-32301, 61664

Orbit data source: Space-Track

STARLINK-32301, 61664 is a payload satellite owned by SpaceX/Seattle (US) in LEO that was launched on Sat, 26 Oct 2024 UTC via an FALCON 9 launch vehicle from the Air Force Eastern Test Range (AFETR). Payload-class satellites include a variety of spacecraft equipped with specific instruments for various scientific and technological missions. These include communications satellites like Starlink; space stations such as the ISS; scientific satellites like the Hubble; Earth observation satellites from companies like Planet Labs, Umbra, and HawkEye 360; GPS; miniature CubeSats for education and research; and military/defense satellites.

Loading next visibility...
Identifier
61664, 2024-193D
Orbit
LEO
Country
Flag of USUS
Related business
Manufacturer
SpaceX/Seattle
Mission
Operational Commercial Communications
Bus & Motor
STARLINK V2M, Unknown motor
Mass
730 kg wet, ~700 kg dry
Launch date (UTC)
2024-10-26 (2 years ago)
Launch vehicle
FALCON 9
Launch site
Air Force Eastern Test Range (AFETR)
Object type
Payload
Rocket body
Debris
Shape & HBR
Box + 2 Pan, 17.7 m
Radar Cross Section
33.884 m², Large (>1 m²)

Expand to show TLE details & history
Last TLE update: 11 hours ago

TLE from 11 hours ago
0 STARLINK-32301
1 61664U 24193D   26125.44689735  .00002486  00000-0  91806-4 0  9992
2 61664  53.1608 187.5744 0001187  88.0989 272.0148 15.31709121 85213
Epoch: 2026-05-05T10:43Z
TLE epoch observation values (Epoch: 2026-05-05T10:43:31.931Z)
Latitude
-0.00003°
Longitude
163.36972°
Altitude
471.585 km
Speed
7.631 km/s
True Right ascension
12h 30m 17s
True Declination
0° 00' 00"
Sunlit
Object was in full shadow at epoch
Visualization orbit readout
Latitude
Unknown
Longitude
Unknown
Altitude
Unknown
Speed
Unknown
Apparent Right ascension
Unknown
Apparent Declination
Unknown
Sunlit
N/A
Visualization observer readout
Local Sidereal Time
05:24:19
Azimuth
Unknown
Elevation
Unknown
Doppler factor
Unknown
Orbital elements
Apogee altitude
471.782 km
Perigee altitude
470.156 km
Semi-major axis
6,849.106 km
Eccentricity
0.00012
Inclination
53.1608°
RAAN
187.5744°
Arg. of periapsis
88.0989°
True anomaly
272.00121°
Mean anomaly
272.0148°
Eccentric anomaly
272.008°
Mean motion
3.82906 °/min
Orbital period
94.02 mins
BSTAR
0.000091806
Loading maneuver chart data...
Computing Atmospheric mass density...
Loading historical data...
Loading historical data...
Loading historical data...
Loading historical data...
Loading historical data...
Loading historical data...
Loading historical data...

Documentation

Showing up to 5 results
|